Change the Weather History Date:

Saturday, December 29, 2012

  Actual Average Record
Temperature  
Mean Temperature 6 °F -  
Max Temperature 14 °F 23 °F 39 °F (2011)
Min Temperature -2 °F 5 °F -11 °F (2013)
Degree Days  
Heating Degree Days 59    
Moisture  
Dew Point 7 °F    
Average Humidity 100    
Maximum Humidity 100    
Minimum Humidity 100    
Precipitation  
Precipitation 0.02 in - - ()
Sea Level Pressure  
Sea Level Pressure 30.06 in    
Wind  
Wind Speed 7 mph (WSW)    
Max Wind Speed 12 mph    
Max Gust Speed -    
Visibility 7 miles    
Events Fog , Snow    
Averages and records for this station are not official NWS values.
T = Trace of Precipitation, MM = Missing Value Source: NWS Daily Summary

Daily Weather History Graph

Daily Weather History Graph

Search for Another Location

Airport or City:

Trip Planner

Search our weather history database for the weather conditions in past years. The results will help you decide how hot, cold, wet, or windy it might be!

Date:

Astronomy

Dec. 29, 2012 Rise Set
Actual Time 8:02 AM CST 4:58 PM CST
Civil Twilight 7:29 AM CST 5:31 PM CST
Nautical Twilight 6:53 AM CST 6:08 PM CST
Astronomical Twilight 6:18 AM CST 6:43 PM CST
Moon 6:36 PM CST (12/29) 8:33 AM CST (12/29)
Length of Visible Light 10h 01m
Length of Day
8h 55m
Full, 98% of the Moon is Illuminated
Dec 29
Full
Jan 4
Last Quarter
Jan 11
New
Jan 18
First Quarter
Jan 26
Full

Hourly Weather History & Observations

Time (CST) Temp. Windchill Dew Point Humidity Pressure Visibility Wind Dir Wind Speed Gust Speed Precip Events Conditions
12:00 AM 8.6 °F -5.5 °F 8.6 °F 100% 30.04 in 10.0 mi WNW 10.4 mph - N/A Snow Light Snow
12:20 AM 8.6 °F -4.7 °F 8.6 °F 100% 30.03 in 10.0 mi West 9.2 mph - N/A Snow Light Snow
12:40 AM 8.6 °F -5.5 °F 8.6 °F 100% 30.03 in 9.0 mi WNW 10.4 mph - N/A Snow Light Snow
1:00 AM 8.6 °F -4.7 °F 8.6 °F 100% 30.02 in 9.0 mi WNW 9.2 mph - N/A Snow Light Snow
1:20 AM 8.6 °F -3.7 °F 8.6 °F 100% 30.02 in 9.0 mi West 8.1 mph - N/A   Overcast
1:40 AM 6.8 °F -5.9 °F 6.8 °F 100% 30.02 in 7.0 mi West 8.1 mph - N/A   Overcast
2:00 AM 6.8 °F -6.9 °F 6.8 °F 100% 30.02 in 2.5 mi West 9.2 mph - N/A   Overcast
2:20 AM 6.8 °F -4.8 °F 6.8 °F 100% 30.02 in 4.0 mi West 6.9 mph - N/A Snow Light Snow
2:40 AM 6.8 °F -3.5 °F 6.8 °F 100% 30.03 in 6.0 mi West 5.8 mph - N/A Snow Light Snow
3:00 AM 6.8 °F -3.5 °F 6.8 °F 100% 30.04 in 1.8 mi WNW 5.8 mph - N/A Snow Light Snow
3:20 AM 5.0 °F -6.9 °F 5.0 °F 100% 30.04 in 1.0 mi West 6.9 mph - N/A   Overcast
3:40 AM 5.0 °F -6.9 °F 5.0 °F 100% 30.04 in 4.0 mi WSW 6.9 mph - N/A   Overcast
4:00 AM 3.2 °F -4.2 °F 3.2 °F 100% 30.04 in 7.0 mi WSW 3.5 mph - N/A   Overcast
4:20 AM 3.2 °F -7.8 °F 3.2 °F 100% 30.04 in 4.0 mi WSW 5.8 mph - N/A   Overcast
4:40 AM 5.0 °F -2.1 °F 5.0 °F 100% 30.04 in 1.5 mi SW 3.5 mph - N/A   Overcast
5:00 AM 3.2 °F -6.2 °F 3.2 °F 100% 30.04 in 1.5 mi WSW 4.6 mph - N/A   Overcast
5:20 AM 3.2 °F -6.2 °F 3.2 °F 100% 30.03 in 3.0 mi SW 4.6 mph - N/A   Overcast
5:40 AM 1.4 °F -8.3 °F 1.4 °F 100% 30.03 in 7.0 mi SW 4.6 mph - N/A   Overcast
6:00 AM -0.4 °F -12.0 °F -0.4 °F 100% 30.03 in 0.8 mi SSW 5.8 mph - N/A   Overcast
6:20 AM -0.4 °F -10.4 °F -0.4 °F 100% 30.04 in 0.8 mi SW 4.6 mph - N/A   Overcast
7:00 AM -0.4 °F -12.0 °F -0.4 °F 100% 30.04 in 10.0 mi WSW 5.8 mph - N/A   Partly Cloudy
7:20 AM -0.4 °F -10.4 °F -0.4 °F 100% 30.05 in 10.0 mi WSW 4.6 mph - N/A   Partly Cloudy
7:40 AM -2.2 °F -15.6 °F -2.2 °F 100% 30.04 in 10.0 mi SW 6.9 mph - N/A   Partly Cloudy
8:00 AM -2.2 °F -14.2 °F -2.2 °F 100% 30.05 in 10.0 mi WSW 5.8 mph - N/A   Mostly Cloudy
8:20 AM -0.4 °F -10.4 °F -0.4 °F 100% 30.06 in 2.5 mi WSW 4.6 mph - N/A   Overcast
8:40 AM 1.4 °F -8.3 °F 1.4 °F 100% 30.05 in 2.5 mi SW 4.6 mph - N/A Snow Light Snow
9:00 AM 5.0 °F -5.6 °F 5.0 °F 100% 30.06 in 0.5 mi WSW 5.8 mph - N/A Snow Snow
9:20 AM 5.0 °F -6.9 °F 5.0 °F 100% 30.06 in 0.2 mi WSW 6.9 mph - N/A Fog Light Freezing Fog
9:40 AM 6.8 °F -2.0 °F 6.8 °F 100% 30.06 in 2.0 mi WSW 4.6 mph - N/A Snow Light Snow
10:00 AM 8.6 °F -1.3 °F 8.6 °F 100% 30.06 in 3.0 mi WSW 5.8 mph - N/A Snow Light Snow
10:20 AM 8.6 °F -3.7 °F 8.6 °F 100% 30.06 in 2.5 mi WSW 8.1 mph - N/A Snow Light Snow
10:40 AM 8.6 °F -1.3 °F 8.6 °F 100% 30.07 in 3.0 mi West 5.8 mph - N/A Snow Light Snow
11:00 AM 8.6 °F -3.7 °F 8.6 °F 100% 30.06 in 2.0 mi West 8.1 mph - 0.01 in Snow Light Snow
11:20 AM 10.4 °F -2.4 °F 10.4 °F 100% 30.06 in 3.0 mi West 9.2 mph - N/A Snow Light Snow
11:40 AM 10.4 °F -4.1 °F 10.4 °F 100% 30.06 in 1.5 mi WSW 11.5 mph - 0.01 in Snow Light Snow
12:00 PM 10.4 °F -4.1 °F 10.4 °F 100% 30.05 in 7.0 mi WSW 11.5 mph - 0.01 in Snow Light Snow
12:20 PM 10.4 °F -4.1 °F 10.4 °F 100% 30.05 in 6.0 mi WSW 11.5 mph - N/A Snow Light Snow
12:40 PM 10.4 °F -2.4 °F 10.4 °F 100% 30.04 in 10.0 mi WSW 9.2 mph - N/A   Overcast
1:00 PM 12.2 °F -1.0 °F 12.2 °F 100% 30.04 in 10.0 mi WSW 10.4 mph - N/A   Overcast
1:20 PM 12.2 °F 2.9 °F 12.2 °F 100% 30.04 in 10.0 mi WSW 5.8 mph - N/A   Mostly Cloudy
1:40 PM 14.0 °F 5.1 °F 14.0 °F 100% 30.04 in 10.0 mi West 5.8 mph - N/A   Scattered Clouds
2:00 PM 14.0 °F 2.9 °F 14.0 °F 100% 30.04 in 10.0 mi West 8.1 mph - N/A   Partly Cloudy
2:20 PM 14.0 °F 2.0 °F 14.0 °F 100% 30.04 in 10.0 mi West 9.2 mph - N/A   Clear
2:40 PM 14.0 °F 2.9 °F 14.0 °F 100% 30.04 in 10.0 mi WNW 8.1 mph - N/A   Clear
3:00 PM 14.0 °F 0.5 °F 14.0 °F 100% 30.05 in 10.0 mi West 11.5 mph - N/A   Clear
3:20 PM 12.2 °F -1.0 °F 12.2 °F 100% 30.06 in 10.0 mi West 10.4 mph - N/A   Clear
3:40 PM 12.2 °F -0.2 °F 12.2 °F 100% 30.06 in 10.0 mi WNW 9.2 mph - N/A   Clear
4:00 PM 12.2 °F -0.2 °F 12.2 °F 100% 30.06 in 10.0 mi West 9.2 mph - N/A   Clear
4:20 PM 10.4 °F -1.5 °F 10.4 °F 100% 30.07 in 10.0 mi West 8.1 mph - N/A   Clear
4:40 PM 10.4 °F -0.4 °F 10.4 °F 100% 30.07 in 10.0 mi West 6.9 mph - N/A   Clear
5:00 PM 10.4 °F -1.5 °F 10.4 °F 100% 30.07 in 10.0 mi West 8.1 mph - N/A   Clear
5:20 PM 8.6 °F -1.3 °F 8.6 °F 100% 30.07 in 10.0 mi West 5.8 mph - N/A   Clear
5:40 PM 8.6 °F -3.7 °F 8.6 °F 100% 30.07 in 10.0 mi WNW 8.1 mph - N/A   Clear
6:00 PM 8.6 °F 2.0 °F 8.6 °F 100% 30.07 in 10.0 mi West 3.5 mph - N/A   Clear
6:20 PM 6.8 °F -3.5 °F 6.8 °F 100% 30.07 in 10.0 mi West 5.8 mph - N/A   Clear
6:40 PM 6.8 °F -0.1 °F 6.8 °F 100% 30.07 in 10.0 mi West 3.5 mph - N/A   Clear
7:00 PM 6.8 °F -3.5 °F 6.8 °F 100% 30.08 in 10.0 mi West 5.8 mph - N/A   Clear
7:20 PM 6.8 °F -3.5 °F 6.8 °F 100% 30.09 in 10.0 mi SW 5.8 mph - N/A   Clear
7:40 PM 6.8 °F -3.5 °F 6.8 °F 100% 30.09 in 10.0 mi WSW 5.8 mph - N/A   Clear
8:00 PM 5.0 °F -5.6 °F 5.0 °F 100% 30.10 in 10.0 mi SW 5.8 mph - N/A   Clear
8:20 PM 5.0 °F -5.6 °F 5.0 °F 100% 30.09 in 10.0 mi WSW 5.8 mph - N/A   Clear
8:40 PM 5.0 °F -6.9 °F 5.0 °F 100% 30.09 in 10.0 mi WSW 6.9 mph - N/A   Clear
9:00 PM 6.8 °F -3.5 °F 6.8 °F 100% 30.09 in 10.0 mi WSW 5.8 mph - N/A   Clear
9:20 PM 5.0 °F -2.1 °F 5.0 °F 100% 30.09 in 10.0 mi SW 3.5 mph - N/A   Clear
9:40 PM 6.8 °F -2.0 °F 6.8 °F 100% 30.09 in 10.0 mi SW 4.6 mph - N/A   Clear
10:00 PM 3.2 °F -7.8 °F 3.2 °F 100% 30.09 in 10.0 mi South 5.8 mph - N/A   Clear
10:20 PM 1.4 °F -8.3 °F 1.4 °F 100% 30.10 in 10.0 mi SSW 4.6 mph - N/A   Clear
10:40 PM 1.4 °F -9.9 °F 1.4 °F 100% 30.10 in 10.0 mi SSW 5.8 mph - N/A   Clear
11:00 PM 1.4 °F -12.5 °F 1.4 °F 100% 30.10 in 10.0 mi South 8.1 mph - N/A   Clear
11:20 PM -0.4 °F -14.7 °F -0.4 °F 100% 30.09 in 10.0 mi South 8.1 mph - N/A   Clear
11:40 PM -0.4 °F -14.7 °F -0.4 °F 100% 30.09 in 10.0 mi South 8.1 mph - N/A   Clear